Time,TemperatureF,DewpointF,PressureIn,WindDirection,WindDirectionDegrees,WindSpeedMPH,WindSpeedGustMPH,Humidity,HourlyPrecipIn,Conditions,Clouds,dailyrainin,SoftwareType,DateUTC
2017-05-29 00:08:00,65.6,64.0,29.80,ENE,60,0.0,3.0,95,0.01,,,0.00,weatherlink.com 1.10,2017-05-29 04:08:00,
2017-05-29 00:23:00,65.4,64.0,29.79,NE,56,0.0,3.0,95,0.00,,,0.00,weatherlink.com 1.10,2017-05-29 04:23:00,
2017-05-29 00:38:00,65.3,64.0,29.79,NE,52,1.0,3.0,95,0.01,,,0.01,weatherlink.com 1.10,2017-05-29 04:38:00,
2017-05-29 00:53:00,64.9,64.0,29.79,NE,55,0.0,3.0,95,0.01,,,0.01,weatherlink.com 1.10,2017-05-29 04:53:00,
2017-05-29 01:08:00,64.3,63.0,29.80,ENE,57,1.0,2.0,95,0.01,,,0.01,weatherlink.com 1.10,2017-05-29 05:08:00,
2017-05-29 01:23:00,64.0,63.0,29.82,ENE,66,2.0,2.0,95,0.01,,,0.01,weatherlink.com 1.10,2017-05-29 05:23:00,
2017-05-29 01:38:00,63.7,63.0,29.81,ENE,66,0.0,0.0,96,0.00,,,0.01,weatherlink.com 1.10,2017-05-29 05:38:00,
2017-05-29 01:53:00,63.5,62.0,29.82,ENE,66,0.0,0.0,96,0.00,,,0.01,weatherlink.com 1.10,2017-05-29 05:53:00,
2017-05-29 02:08:00,63.2,62.0,29.82,ENE,66,0.0,0.0,96,0.00,,,0.01,weatherlink.com 1.10,2017-05-29 06:08:00,
2017-05-29 02:23:00,62.8,62.0,29.82,ENE,66,0.0,0.0,96,0.00,,,0.01,weatherlink.com 1.10,2017-05-29 06:23:00,
2017-05-29 02:38:00,62.4,61.0,29.83,ENE,66,0.0,0.0,96,0.00,,,0.01,weatherlink.com 1.10,2017-05-29 06:38:00,
2017-05-29 02:53:00,62.2,61.0,29.83,ENE,66,0.0,0.0,96,0.00,,,0.01,weatherlink.com 1.10,2017-05-29 06:53:00,
2017-05-29 03:08:00,61.9,61.0,29.83,ENE,66,0.0,0.0,96,0.00,,,0.01,weatherlink.com 1.10,2017-05-29 07:08:00,
2017-05-29 03:23:00,61.1,60.0,29.82,ENE,66,0.0,0.0,96,0.00,,,0.01,weatherlink.com 1.10,2017-05-29 07:23:00,
2017-05-29 03:38:00,60.9,60.0,29.82,ENE,66,0.0,0.0,96,0.00,,,0.01,weatherlink.com 1.10,2017-05-29 07:38:00,
2017-05-29 03:53:00,60.6,60.0,29.82,ENE,66,0.0,0.0,96,0.00,,,0.01,weatherlink.com 1.10,2017-05-29 07:53:00,
2017-05-29 04:08:00,60.3,59.0,29.82,ENE,66,0.0,0.0,96,0.00,,,0.01,weatherlink.com 1.10,2017-05-29 08:08:00,
2017-05-29 04:23:00,60.2,59.0,29.82,ENE,66,0.0,0.0,97,0.00,,,0.01,weatherlink.com 1.10,2017-05-29 08:23:00,
2017-05-29 04:38:00,60.3,60.0,29.83,ENE,66,0.0,0.0,97,0.00,,,0.01,weatherlink.com 1.10,2017-05-29 08:38:00,
2017-05-29 04:53:00,60.4,60.0,29.83,ENE,66,0.0,0.0,97,0.00,,,0.01,weatherlink.com 1.10,2017-05-29 08:53:00,
2017-05-29 05:08:00,60.7,60.0,29.83,ENE,66,0.0,0.0,97,0.00,,,0.01,weatherlink.com 1.10,2017-05-29 09:08:00,
2017-05-29 05:23:00,60.5,60.0,29.84,ENE,66,0.0,0.0,97,0.00,,,0.01,weatherlink.com 1.10,2017-05-29 09:23:00,
2017-05-29 05:38:00,60.8,60.0,29.85,ENE,66,0.0,0.0,97,0.00,,,0.01,weatherlink.com 1.10,2017-05-29 09:38:00,
2017-05-29 05:53:00,61.1,60.0,29.85,ENE,66,0.0,0.0,97,0.00,,,0.01,weatherlink.com 1.10,2017-05-29 09:53:00,
2017-05-29 06:08:00,61.3,61.0,29.86,ENE,66,0.0,0.0,97,0.00,,,0.01,weatherlink.com 1.10,2017-05-29 10:08:00,
2017-05-29 06:23:00,61.2,60.0,29.86,ENE,66,0.0,0.0,97,0.00,,,0.01,weatherlink.com 1.10,2017-05-29 10:23:00,
2017-05-29 06:38:00,61.6,61.0,29.87,ENE,66,0.0,0.0,97,0.00,,,0.01,weatherlink.com 1.10,2017-05-29 10:38:00,
2017-05-29 06:53:00,62.1,61.0,29.89,ENE,62,0.0,3.0,97,0.00,,,0.01,weatherlink.com 1.10,2017-05-29 10:53:00,
2017-05-29 07:09:00,62.6,62.0,29.89,ESE,103,1.0,3.0,97,0.00,,,0.01,weatherlink.com 1.10,2017-05-29 11:09:00,
2017-05-29 07:24:00,62.9,62.0,29.89,ENE,60,0.0,3.0,97,0.00,,,0.01,weatherlink.com 1.10,2017-05-29 11:24:00,
2017-05-29 07:39:00,63.3,63.0,29.89,ENE,61,0.0,2.0,97,0.00,,,0.01,weatherlink.com 1.10,2017-05-29 11:39:00,
2017-05-29 07:54:00,63.7,63.0,29.89,ENE,61,0.0,2.0,97,0.00,,,0.01,weatherlink.com 1.10,2017-05-29 11:54:00,
2017-05-29 08:09:00,64.4,64.0,29.89,NE,51,1.0,3.0,97,0.00,,,0.01,weatherlink.com 1.10,2017-05-29 12:09:00,
2017-05-29 08:24:00,65.2,64.0,29.89,ENE,57,0.0,2.0,96,0.00,,,0.01,weatherlink.com 1.10,2017-05-29 12:24:00,
2017-05-29 08:39:00,66.0,64.0,29.89,ENE,76,0.0,3.0,94,0.00,,,0.01,weatherlink.com 1.10,2017-05-29 12:39:00,
2017-05-29 08:54:00,67.0,65.0,29.89,NE,51,1.0,3.0,92,0.00,,,0.01,weatherlink.com 1.10,2017-05-29 12:54:00,
2017-05-29 09:09:00,67.4,64.0,29.89,ENE,57,3.0,4.0,88,0.00,,,0.01,weatherlink.com 1.10,2017-05-29 13:09:00,
2017-05-29 09:24:00,68.3,64.0,29.89,ENE,59,2.0,4.0,85,0.00,,,0.01,weatherlink.com 1.10,2017-05-29 13:24:00,
2017-05-29 09:39:00,68.9,64.0,29.89,ENE,59,1.0,5.0,83,0.00,,,0.01,weatherlink.com 1.10,2017-05-29 13:39:00,
2017-05-29 09:54:00,70.0,65.0,29.89,ENE,71,2.0,3.0,83,0.00,,,0.01,weatherlink.com 1.10,2017-05-29 13:54:00,
2017-05-29 10:09:00,70.6,64.0,29.89,ENE,71,0.0,4.0,80,0.00,,,0.01,weatherlink.com 1.10,2017-05-29 14:09:00,
2017-05-29 10:24:00,71.6,63.0,29.89,East,87,3.0,4.0,75,0.00,,,0.01,weatherlink.com 1.10,2017-05-29 14:24:00,
2017-05-29 10:39:00,72.5,64.0,29.89,East,89,2.0,5.0,75,0.00,,,0.01,weatherlink.com 1.10,2017-05-29 14:39:00,
2017-05-29 10:54:00,73.4,62.0,29.89,ESE,114,2.0,6.0,68,0.00,,,0.01,weatherlink.com 1.10,2017-05-29 14:54:00,
2017-05-29 11:09:00,74.9,63.0,29.90,NE,38,2.0,4.0,66,0.00,,,0.01,weatherlink.com 1.10,2017-05-29 15:09:00,
2017-05-29 11:24:00,74.7,63.0,29.90,NE,42,3.0,6.0,67,0.00,,,0.01,weatherlink.com 1.10,2017-05-29 15:24:00,
2017-05-29 11:39:00,75.4,62.0,29.90,NNE,25,4.0,8.0,63,0.00,,,0.01,weatherlink.com 1.10,2017-05-29 15:39:00,
2017-05-29 11:54:00,76.0,63.0,29.90,North,11,2.0,4.0,64,0.00,,,0.01,weatherlink.com 1.10,2017-05-29 15:54:00,
2017-05-29 12:09:00,76.4,63.0,29.91,NE,34,3.0,9.0,64,0.00,,,0.01,weatherlink.com 1.10,2017-05-29 16:09:00,
2017-05-29 12:24:00,76.8,60.0,29.91,ENE,60,1.0,8.0,57,0.00,,,0.01,weatherlink.com 1.10,2017-05-29 16:24:00,
2017-05-29 12:39:00,77.7,60.0,29.91,ENE,69,4.0,6.0,54,0.00,,,0.01,weatherlink.com 1.10,2017-05-29 16:39:00,
2017-05-29 12:54:00,78.4,60.0,29.91,NE,36,3.0,8.0,54,0.00,,,0.01,weatherlink.com 1.10,2017-05-29 16:54:00,
2017-05-29 13:09:00,78.8,60.0,29.90,ENE,69,1.0,7.0,52,0.00,,,0.01,weatherlink.com 1.10,2017-05-29 17:09:00,
2017-05-29 13:24:00,78.8,60.0,29.90,NE,55,2.0,6.0,52,0.00,,,0.01,weatherlink.com 1.10,2017-05-29 17:24:00,
2017-05-29 13:39:00,78.4,59.0,29.90,NE,43,3.0,8.0,51,0.00,,,0.01,weatherlink.com 1.10,2017-05-29 17:39:00,
2017-05-29 13:54:00,79.6,58.0,29.91,ENE,70,3.0,8.0,48,0.00,,,0.01,weatherlink.com 1.10,2017-05-29 17:54:00,
2017-05-29 14:09:00,78.7,57.0,29.90,East,92,2.0,5.0,48,0.00,,,0.01,weatherlink.com 1.10,2017-05-29 18:09:00,
2017-05-29 14:24:00,79.9,57.0,29.91,NNE,21,3.0,9.0,46,0.00,,,0.01,weatherlink.com 1.10,2017-05-29 18:24:00,
2017-05-29 14:54:00,80.0,55.0,29.90,ENE,58,4.0,9.0,43,0.00,,,0.01,weatherlink.com 1.10,2017-05-29 18:54:00,
2017-05-29 15:09:00,79.5,55.0,29.90,East,90,7.0,11.0,43,0.00,,,0.01,weatherlink.com 1.10,2017-05-29 19:09:00,
2017-05-29 15:25:00,80.5,56.0,29.90,NNE,17,4.0,11.0,43,0.00,,,0.01,weatherlink.com 1.10,2017-05-29 19:25:00,
2017-05-29 15:39:00,80.5,56.0,29.89,ENE,59,1.0,10.0,43,0.00,,,0.01,weatherlink.com 1.10,2017-05-29 19:39:00,
2017-05-29 15:55:00,80.3,54.0,29.90,East,90,4.0,10.0,41,0.00,,,0.01,weatherlink.com 1.10,2017-05-29 19:55:00,
2017-05-29 16:10:00,81.7,56.0,29.89,NE,46,3.0,7.0,41,0.00,,,0.01,weatherlink.com 1.10,2017-05-29 20:10:00,
2017-05-29 16:25:00,80.9,55.0,29.89,ENE,68,1.0,9.0,41,0.00,,,0.01,weatherlink.com 1.10,2017-05-29 20:25:00,
2017-05-29 16:40:00,80.5,55.0,29.89,NNE,15,2.0,9.0,41,0.00,,,0.01,weatherlink.com 1.10,2017-05-29 20:40:00,
2017-05-29 16:55:00,81.7,54.0,29.88,ENE,69,5.0,10.0,39,0.00,,,0.01,weatherlink.com 1.10,2017-05-29 20:55:00,
2017-05-29 17:10:00,81.1,52.0,29.88,NE,44,5.0,15.0,36,0.00,,,0.01,weatherlink.com 1.10,2017-05-29 21:10:00,
2017-05-29 17:25:00,81.2,54.0,29.87,NNE,30,5.0,9.0,39,0.00,,,0.01,weatherlink.com 1.10,2017-05-29 21:25:00,
2017-05-29 17:40:00,81.0,53.0,29.87,NE,40,2.0,11.0,38,0.00,,,0.01,weatherlink.com 1.10,2017-05-29 21:40:00,
2017-05-29 17:55:00,80.5,54.0,29.87,NE,55,3.0,6.0,40,0.00,,,0.01,weatherlink.com 1.10,2017-05-29 21:55:00,
2017-05-29 18:10:00,80.4,55.0,29.86,NE,52,0.0,8.0,41,0.00,,,0.01,weatherlink.com 1.10,2017-05-29 22:10:00,
2017-05-29 18:25:00,80.8,54.0,29.86,NE,54,0.0,10.0,39,0.00,,,0.01,weatherlink.com 1.10,2017-05-29 22:25:00,